Hlavní strana
METAR-TAF:

METAR-TAF

Letiště :

Pickens, Jižní Karolína, Spojené státy americké

zeměpisná šířka: 34-48-36N, zeměpisná délka: 082-42-10W, výška: 309 m

Aktuální stav počasí

Zpráva byla vytvořena před 25 minutami, v 01:55 UTC
Severoseverozápadní vítr 6 kt s nárazy do 14 kt
Teplota 7°C
Vlhkost vzduchu 42%
Tlak 1019 hPa
Jasno

METAR: KLQK 220155Z AUTO 34006G14KT CLR 07/M05 A3008 RMK AO2 T00671051 PWINO

Čas: 22:20 (02:20 UTC)


TAF: chybějící

Stav a předpovědi počasí z více než 4 000 letišť (zprávy METAR a TAF).

Červené a žluté tečky na mapě představují dostupné meteorologické stanice.

Když kurzor umístíte na tečku, zobrazí se název stanice.

Pak kliknutím zobrazíte stav a předpověď počasí.

Chcete-li změnit mapu, kliknutím na zelené tlačítko se znaménkem +mapu přiblížíte, kliknutím na zelené tlačítko se znaménkem – mapu oddálíte a kliknutím na zelené šipky přejdete na sousední mapy.


METAR-TAF: